STARLINK-1317 (45365 NORAD) Tracking and Keplerian Element Data

This shows tracking and keplerian element data for the satellite.

Feedback or suggestion? Click here.




ElementValue
Catalog45365
NameSTARLINK-1317
Epoch Orbit180
Epoch Day189.91668981
Epoch Year2020
RAAN82.6885
Inclination52.9986
Eccentricity0.0001846
Argument of Perigee84.759
Mean Anonmoly147.0283
Mean Motion15.05605046
Decay Rate-0.00025908
L11 45365U 20019F 20189.91668981 -.00025908 00000-0 -17642-2 0 9991
L22 45365 52.9986 82.6885 0001846 84.7590 147.0283 15.05605046 1809

Live tracking and technical data element details for STARLINK-1317 (NORAD 45365). STARLINK-1317 can be tracked NOW for your location showing map with azimuth and elevation plus other details from your city location.

Track the satellite on the map from your city or location and see movement details for azimuth, elevation, latitude, longitude, range, height, and movement on the map or in text.







IsCatalogInMostPopularTable: catalog: 45365, numindb: 22
Update: records affected: 1



GetName: 45365 STARLINK-1317

Hit Count: updated at: Fri, 10 Jul 2020 04:01:48 GMT